• In Deutschland
  • Länderverzeichnis
  • Für 7 Tage
  • Wassertemperatur
  • Satellitenkarten
  • Wetterkarte
  • Widgets
  • user-avatar
    Anmelden

    Stündliche Wetter Saidpur

    Heute, 17 August, Donnerstag

    Zeit Temperatur Niederschläge Wind Luftdruck Luftfeuchtigkeit
    00:00 +31°C° 0 mm 2 m/S 748 mmHg 82%
    01:00 +30°C° 0,6 mm 2 m/S 748 mmHg 83%
    02:00 +30°C° 0,6 mm 2 m/S 747 mmHg 83%
    03:00 +30°C° 0,6 mm 2 m/S 747 mmHg 84%
    04:00 +30°C° 0,1 mm 3 m/S 747 mmHg 85%
    05:00 +29°C° 0,1 mm 3 m/S 747 mmHg 86%
    06:00 +29°C° 0,1 mm 3 m/S 747 mmHg 87%
    07:00 +30°C° 0,1 mm 3 m/S 748 mmHg 82%
    08:00 +31°C° 0,1 mm 3 m/S 748 mmHg 77%
    09:00 +33°C° 0,1 mm 4 m/S 748 mmHg 72%
    10:00 +35°C° 0,3 mm 4 m/S 748 mmHg 68%
    11:00 +36°C° 0,3 mm 4 m/S 748 mmHg 63%
    12:00 +37°C° 0,3 mm 4 m/S 747 mmHg 58%
    13:00 +37°C° 0,4 mm 4 m/S 747 mmHg 58%
    14:00 +37°C° 0,4 mm 4 m/S 746 mmHg 57%
    15:00 +38°C° 0,4 mm 4 m/S 746 mmHg 56%
    16:00 +37°C° 0,1 mm 3 m/S 745 mmHg 58%
    17:00 +36°C° 0,1 mm 3 m/S 745 mmHg 61%
    18:00 +36°C° 0,1 mm 3 m/S 745 mmHg 64%
    19:00 +35°C° 0,6 mm 3 m/S 745 mmHg 67%
    20:00 +34°C° 0,6 mm 2 m/S 746 mmHg 71%
    21:00 +32°C° 0,6 mm 2 m/S 747 mmHg 74%
    22:00 +32°C° 1 mm 2 m/S 747 mmHg 76%
    23:00 +31°C° 1 mm 2 m/S 747 mmHg 79%

    Morgen, 18 August, Freitag

    Zeit Temperatur Niederschläge Wind Luftdruck Luftfeuchtigkeit
    00:00 +31°C° 1 mm 2 m/S 748 mmHg 81%
    01:00 +31°C° 0,7 mm 2 m/S 748 mmHg 82%
    02:00 +30°C° 0,7 mm 3 m/S 747 mmHg 84%
    03:00 +30°C° 0,7 mm 3 m/S 747 mmHg 85%
    04:00 +30°C° 0,8 mm 3 m/S 747 mmHg 86%
    05:00 +30°C° 0,8 mm 3 m/S 747 mmHg 87%
    06:00 +29°C° 0,8 mm 3 m/S 748 mmHg 88%
    07:00 +30°C° 0,1 mm 3 m/S 748 mmHg 84%
    08:00 +32°C° 0,1 mm 4 m/S 749 mmHg 80%
    09:00 +33°C° 0,1 mm 5 m/S 749 mmHg 76%
    10:00 +34°C° 0,2 mm 5 m/S 749 mmHg 73%
    11:00 +35°C° 0,2 mm 4 m/S 749 mmHg 69%
    12:00 +36°C° 0,2 mm 4 m/S 749 mmHg 65%
    13:00 +36°C° 0,4 mm 5 m/S 748 mmHg 64%
    14:00 +36°C° 0,4 mm 5 m/S 748 mmHg 63%
    15:00 +36°C° 0,4 mm 5 m/S 747 mmHg 63%
    16:00 +35°C° 0,9 mm 4 m/S 747 mmHg 66%
    17:00 +35°C° 0,9 mm 4 m/S 747 mmHg 69%
    18:00 +34°C° 0,9 mm 3 m/S 747 mmHg 72%
    19:00 +33°C° 0,6 mm 3 m/S 748 mmHg 74%
    20:00 +33°C° 0,6 mm 3 m/S 749 mmHg 77%
    21:00 +31°C° 0,6 mm 3 m/S 749 mmHg 79%
    22:00 +31°C° 0,5 mm 3 m/S 749 mmHg 80%
    23:00 +31°C° 0,5 mm 2 m/S 749 mmHg 82%

    übermorgen, 19 August, Samstag

    Zeit Temperatur Niederschläge Wind Luftdruck Luftfeuchtigkeit
    00:00 +30°C° 0,5 mm 2 m/S 749 mmHg 83%
    01:00 +30°C° 1,1 mm 2 m/S 749 mmHg 84%
    02:00 +30°C° 1,1 mm 2 m/S 749 mmHg 85%
    03:00 +30°C° 1,1 mm 2 m/S 749 mmHg 86%
    04:00 +30°C° 1,4 mm 2 m/S 749 mmHg 87%
    05:00 +29°C° 1,4 mm 2 m/S 749 mmHg 87%
    06:00 +29°C° 1,4 mm 2 m/S 750 mmHg 88%
    07:00 +30°C° 0,5 mm 3 m/S 750 mmHg 84%
    08:00 +31°C° 0,5 mm 3 m/S 750 mmHg 80%
    09:00 +33°C° 0,5 mm 4 m/S 751 mmHg 76%
    10:00 +34°C° 0 mm 4 m/S 750 mmHg 71%
    11:00 +34°C° 0 mm 4 m/S 750 mmHg 67%
    12:00 +35°C° 0 mm 4 m/S 750 mmHg 62%
    13:00 +36°C° 0 mm 4 m/S 749 mmHg 60%
    14:00 +36°C° 0 mm 4 m/S 748 mmHg 58%
    15:00 +37°C° 0 mm 4 m/S 747 mmHg 56%
    16:00 +36°C° 0,2 mm 3 m/S 747 mmHg 60%
    17:00 +36°C° 0,2 mm 3 m/S 747 mmHg 63%
    18:00 +35°C° 0,2 mm 3 m/S 747 mmHg 66%
    19:00 +34°C° 0 mm 3 m/S 748 mmHg 69%
    20:00 +34°C° 0 mm 2 m/S 749 mmHg 72%
    21:00 +32°C° 0 mm 2 m/S 750 mmHg 75%
    22:00 +31°C° 0,1 mm 2 m/S 750 mmHg 77%
    23:00 +31°C° 0,1 mm 2 m/S 750 mmHg 79%

    20 August, Sonntag

    Zeit Temperatur Niederschläge Wind Luftdruck Luftfeuchtigkeit
    00:00 +31°C° 0,1 mm 1 m/S 750 mmHg 80%
    01:00 +31°C° 0,1 mm 1 m/S 750 mmHg 81%
    02:00 +30°C° 0,1 mm 1 m/S 749 mmHg 82%
    03:00 +30°C° 0,1 mm 1 m/S 749 mmHg 82%
    04:00 +30°C° 0 mm 1 m/S 749 mmHg 83%
    05:00 +30°C° 0 mm 1 m/S 749 mmHg 84%
    06:00 +30°C° 0 mm 1 m/S 749 mmHg 85%
    07:00 +31°C° 0,3 mm 2 m/S 750 mmHg 79%
    08:00 +32°C° 0,3 mm 2 m/S 750 mmHg 73%
    09:00 +34°C° 0,3 mm 2 m/S 750 mmHg 67%
    10:00 +35°C° 0,2 mm 2 m/S 750 mmHg 61%
    11:00 +37°C° 0,2 mm 3 m/S 750 mmHg 56%
    12:00 +38°C° 0,2 mm 3 m/S 749 mmHg 50%
    13:00 +38°C° 0 mm 3 m/S 748 mmHg 50%
    14:00 +38°C° 0 mm 2 m/S 748 mmHg 49%
    15:00 +38°C° 0 mm 2 m/S 747 mmHg 49%
    16:00 +38°C° 0 mm 2 m/S 747 mmHg 52%
    17:00 +37°C° 0 mm 2 m/S 747 mmHg 55%
    18:00 +37°C° 0 mm 2 m/S 747 mmHg 58%
    19:00 +36°C° 0,1 mm 2 m/S 747 mmHg 62%
    20:00 +35°C° 0,1 mm 2 m/S 748 mmHg 65%
    21:00 +34°C° 0,1 mm 3 m/S 749 mmHg 69%
    22:00 +34°C° 0,3 mm 2 m/S 749 mmHg 72%
    23:00 +32°C° 0,3 mm 2 m/S 749 mmHg 75%

    21 August, Montag

    Zeit Temperatur Niederschläge Wind Luftdruck Luftfeuchtigkeit
    00:00 +31°C° 0,3 mm 2 m/S 749 mmHg 78%
    01:00 +31°C° 0,6 mm 2 m/S 748 mmHg 79%
    02:00 +31°C° 0,6 mm 2 m/S 748 mmHg 80%
    03:00 +31°C° 0,6 mm 2 m/S 748 mmHg 81%
    04:00 +30°C° 0,2 mm 2 m/S 748 mmHg 82%
    05:00 +30°C° 0,2 mm 2 m/S 748 mmHg 83%
    06:00 +30°C° 0,2 mm 1 m/S 748 mmHg 84%
    07:00 +31°C° 0,5 mm 2 m/S 749 mmHg 78%
    08:00 +32°C° 0,5 mm 2 m/S 749 mmHg 73%
    09:00 +34°C° 0,5 mm 2 m/S 750 mmHg 67%
    10:00 +35°C° 0 mm 3 m/S 749 mmHg 62%
    11:00 +36°C° 0 mm 3 m/S 749 mmHg 58%
    12:00 +37°C° 0 mm 3 m/S 748 mmHg 53%
    13:00 +38°C° 0,1 mm 3 m/S 748 mmHg 53%
    14:00 +38°C° 0,1 mm 3 m/S 747 mmHg 52%
    15:00 +38°C° 0,1 mm 3 m/S 746 mmHg 52%
    16:00 +37°C° 0,2 mm 3 m/S 746 mmHg 55%
    17:00 +37°C° 0,2 mm 3 m/S 746 mmHg 59%
    18:00 +36°C° 0,2 mm 2 m/S 746 mmHg 62%
    19:00 +35°C° 0,1 mm 3 m/S 746 mmHg 66%
    20:00 +34°C° 0,1 mm 3 m/S 747 mmHg 69%
    21:00 +33°C° 0,1 mm 3 m/S 747 mmHg 73%
    22:00 +33°C° 0,4 mm 3 m/S 748 mmHg 75%
    23:00 +32°C° 0,4 mm 2 m/S 748 mmHg 76%

    22 August, Dienstag

    Zeit Temperatur Niederschläge Wind Luftdruck Luftfeuchtigkeit
    00:00 +31°C° 0,4 mm 2 m/S 748 mmHg 78%
    01:00 +31°C° 2 mm 2 m/S 748 mmHg 79%
    02:00 +31°C° 2 mm 2 m/S 747 mmHg 81%
    03:00 +30°C° 2 mm 2 m/S 747 mmHg 82%
    04:00 +30°C° 0,5 mm 2 m/S 748 mmHg 83%
    05:00 +30°C° 0,5 mm 2 m/S 748 mmHg 84%
    06:00 +30°C° 0,5 mm 2 m/S 748 mmHg 85%
    07:00 +31°C° 0,7 mm 3 m/S 749 mmHg 81%
    08:00 +31°C° 0,7 mm 3 m/S 749 mmHg 77%
    09:00 +33°C° 0,7 mm 4 m/S 749 mmHg 73%
    10:00 +33°C° 1,1 mm 4 m/S 749 mmHg 71%
    11:00 +34°C° 1,1 mm 4 m/S 749 mmHg 70%
    12:00 +34°C° 1,1 mm 4 m/S 749 mmHg 68%
    13:00 +34°C° 0,6 mm 4 m/S 748 mmHg 67%
    14:00 +35°C° 0,6 mm 4 m/S 748 mmHg 66%
    15:00 +35°C° 0,6 mm 4 m/S 747 mmHg 65%
    16:00 +34°C° 0,2 mm 4 m/S 747 mmHg 68%
    17:00 +34°C° 0,2 mm 3 m/S 747 mmHg 71%
    18:00 +33°C° 0,2 mm 3 m/S 747 mmHg 73%
    19:00 +33°C° 0,4 mm 3 m/S 748 mmHg 76%
    20:00 +31°C° 0,4 mm 3 m/S 749 mmHg 78%
    21:00 +31°C° 0,4 mm 2 m/S 750 mmHg 80%
    22:00 +31°C° 0,1 mm 2 m/S 750 mmHg 81%
    23:00 +31°C° 0,1 mm 2 m/S 750 mmHg 82%
    Mehr zeigen